Location: Northcutt
(34.7304°N, 84.4305°W)
Time: 18:33:46
(UTC+00:00)

Transit 2A Rocket - Pass Details

Date: 10 October 2022
Orbit: 589 x 911 km, 66.7° (Epoch: 02 December)

Event Time Altitude Azimuth Distance (km) Brightness Sun altitude
Rises 17:30:57 0° 348° (NNW) 3,054 7.7 48.4°
Reaches altitude 10° 17:33:43 10° 4° (N) 2,193 7.1 48.4°
Maximum altitude 17:37:33 22° 55° (NE) 1,616 6.7 48.3°
Drops below altitude 10° 17:41:38 10° 104° (ESE) 2,352 7.7 48.2°
Sets 17:44:42 0° 120° (ESE) 3,340 8.5 48.2°
